Time,TemperatureF,DewpointF,PressureIn,WindDirection,WindDirectionDegrees,WindSpeedMPH,WindSpeedGustMPH,Humidity,HourlyPrecipIn,Conditions,Clouds,dailyrainin,SoftwareType,DateUTC
2013-04-06 00:14:00,-999.0,-99.9,30.02,North,6,11.0,17.0,-999,-99.99,,,-99.99,,2013-04-06 04:14:00,
2013-04-06 00:23:00,-999.0,-99.9,30.02,North,359,12.0,16.0,-999,-99.99,,,-99.99,,2013-04-06 04:23:00,
2013-04-06 00:33:00,63.0,-99.9,30.03,North,-999,-999.0,-999.0,-999,-99.99,,,-99.99,,2013-04-06 04:33:00,
2013-04-06 00:43:00,-999.0,-99.9,30.03,North,355,10.0,15.0,-999,-99.99,,,-99.99,,2013-04-06 04:43:00,
2013-04-06 00:53:00,63.0,-99.9,30.03,North,-999,-999.0,-999.0,-999,-99.99,,,-99.99,,2013-04-06 04:53:00,
2013-04-06 01:23:00,-999.0,-99.9,30.04,North,6,10.0,14.0,-999,-99.99,,,-99.99,,2013-04-06 05:23:00,
2013-04-06 01:33:00,-999.0,-99.9,30.04,North,3,13.0,18.0,-999,-99.99,,,-99.99,,2013-04-06 05:33:00,
2013-04-06 01:43:00,-999.0,-99.9,30.04,North,3,11.0,17.0,-999,-99.99,,,-99.99,,2013-04-06 05:43:00,
2013-04-06 01:53:00,61.0,-99.9,30.05,North,-999,-999.0,-999.0,-999,-99.99,,,-99.99,,2013-04-06 05:53:00,
2013-04-06 02:12:00,-999.0,-99.9,30.05,North,2,9.0,16.0,-999,-99.99,,,-99.99,,2013-04-06 06:12:00,
2013-04-06 02:23:00,60.0,-99.9,30.05,North,-999,-999.0,-999.0,-999,-99.99,,,-99.99,,2013-04-06 06:23:00,
2013-04-06 02:33:00,-999.0,-99.9,30.05,North,7,10.0,16.0,-999,-99.99,,,-99.99,,2013-04-06 06:33:00,
2013-04-06 02:43:00,60.0,-99.9,30.05,North,-999,-999.0,-999.0,-999,-99.99,,,-99.99,,2013-04-06 06:43:00,
2013-04-06 02:53:00,-999.0,-99.9,30.05,North,0,10.0,14.0,-999,-99.99,,,-99.99,,2013-04-06 06:53:00,
2013-04-06 03:05:00,59.0,-99.9,30.04,North,-999,-999.0,-999.0,-999,-99.99,,,-99.99,,2013-04-06 07:05:00,
2013-04-06 03:12:00,-999.0,-99.9,30.04,NNE,28,11.0,19.0,-999,-99.99,,,-99.99,,2013-04-06 07:12:00,
2013-04-06 03:23:00,-999.0,-99.9,30.04,NNE,26,10.0,16.0,-999,-99.99,,,-99.99,,2013-04-06 07:23:00,
2013-04-06 03:45:00,-999.0,-99.9,30.04,NE,48,11.0,17.0,-999,-99.99,,,-99.99,,2013-04-06 07:45:00,
2013-04-06 03:53:00,-999.0,-99.9,30.04,NE,47,9.0,16.0,-999,-99.99,,,-99.99,,2013-04-06 07:53:00,
2013-04-06 04:02:00,59.0,-99.9,30.04,North,-999,-999.0,-999.0,-999,-99.99,,,-99.99,,2013-04-06 08:02:00,
2013-04-06 04:13:00,-999.0,-99.9,30.04,NNE,27,11.0,15.0,-999,-99.99,,,-99.99,,2013-04-06 08:13:00,
2013-04-06 04:22:00,59.0,-99.9,30.04,North,-999,-999.0,-999.0,-999,-99.99,,,-99.99,,2013-04-06 08:22:00,
2013-04-06 04:43:00,59.0,-99.9,30.04,North,-999,-999.0,-999.0,-999,-99.99,,,-99.99,,2013-04-06 08:43:00,
2013-04-06 04:52:00,60.0,-99.9,30.05,North,-999,-999.0,-999.0,-999,-99.99,,,-99.99,,2013-04-06 08:52:00,
2013-04-06 05:02:00,-999.0,-99.9,30.05,NNE,21,11.0,14.0,-999,-99.99,,,-99.99,,2013-04-06 09:02:00,
2013-04-06 05:22:00,59.0,-99.9,30.06,North,-999,-999.0,-999.0,-999,-99.99,,,-99.99,,2013-04-06 09:22:00,
2013-04-06 05:33:00,59.0,-99.9,30.06,North,-999,-999.0,-999.0,-999,-99.99,,,-99.99,,2013-04-06 09:33:00,
2013-04-06 05:43:00,-999.0,-99.9,30.06,NNE,15,8.0,13.0,-999,-99.99,,,-99.99,,2013-04-06 09:43:00,
2013-04-06 05:53:00,59.0,-99.9,30.06,North,-999,-999.0,-999.0,-999,-99.99,,,-99.99,,2013-04-06 09:53:00,
2013-04-06 06:04:00,-999.0,-99.9,30.06,NNE,16,8.0,13.0,-999,-99.99,,,-99.99,,2013-04-06 10:04:00,
2013-04-06 06:13:00,-999.0,-99.9,30.05,NNE,22,10.0,13.0,-999,-99.99,,,-99.99,,2013-04-06 10:13:00,
2013-04-06 06:23:00,-999.0,-99.9,30.06,NNE,16,8.0,14.0,-999,-99.99,,,-99.99,,2013-04-06 10:23:00,
2013-04-06 06:34:00,59.0,-99.9,30.06,North,-999,-999.0,-999.0,-999,-99.99,,,-99.99,,2013-04-06 10:34:00,
2013-04-06 06:43:00,-999.0,-99.9,30.06,North,5,8.0,11.0,-999,-99.99,,,-99.99,,2013-04-06 10:43:00,
2013-04-06 06:54:00,59.0,-99.9,30.07,North,-999,-999.0,-999.0,-999,-99.99,,,-99.99,,2013-04-06 10:54:00,
2013-04-06 07:03:00,-999.0,-99.9,30.08,North,358,8.0,12.0,-999,-99.99,,,-99.99,,2013-04-06 11:03:00,
2013-04-06 07:23:00,58.0,-99.9,30.09,North,-999,-999.0,-999.0,-999,-99.99,,,-99.99,,2013-04-06 11:23:00,
2013-04-06 07:33:00,58.0,-99.9,30.09,North,-999,-999.0,-999.0,-999,-99.99,,,-99.99,,2013-04-06 11:33:00,
2013-04-06 07:43:00,58.0,-99.9,30.09,North,-999,-999.0,-999.0,-999,-99.99,,,-99.99,,2013-04-06 11:43:00,
2013-04-06 07:53:00,58.0,-99.9,30.09,North,-999,-999.0,-999.0,-999,-99.99,,,-99.99,,2013-04-06 11:53:00,
2013-04-06 08:02:00,-999.0,-99.9,30.09,North,5,9.0,13.0,-999,-99.99,,,-99.99,,2013-04-06 12:02:00,
2013-04-06 08:13:00,-999.0,-99.9,30.10,NNE,12,9.0,14.0,-999,-99.99,,,-99.99,,2013-04-06 12:13:00,
2013-04-06 08:33:00,57.0,-99.9,30.11,North,-999,-999.0,-999.0,-999,-99.99,,,-99.99,,2013-04-06 12:33:00,
2013-04-06 08:44:00,57.0,-99.9,30.11,North,-999,-999.0,-999.0,-999,-99.99,,,-99.99,,2013-04-06 12:44:00,
2013-04-06 08:53:00,-999.0,-99.9,30.10,North,7,9.0,12.0,-999,-99.99,,,-99.99,,2013-04-06 12:53:00,
2013-04-06 09:03:00,-999.0,-99.9,30.11,NNE,15,8.0,12.0,-999,-99.99,,,-99.99,,2013-04-06 13:03:00,
2013-04-06 09:24:00,59.0,-99.9,30.11,North,-999,-999.0,-999.0,-999,-99.99,,,-99.99,,2013-04-06 13:24:00,
2013-04-06 09:33:00,-999.0,-99.9,30.11,NNE,19,10.0,12.0,-999,-99.99,,,-99.99,,2013-04-06 13:33:00,
2013-04-06 09:44:00,59.0,-99.9,30.11,North,-999,-999.0,-999.0,-999,-99.99,,,-99.99,,2013-04-06 13:44:00,
2013-04-06 09:54:00,60.0,-99.9,30.11,North,-999,-999.0,-999.0,-999,-99.99,,,-99.99,,2013-04-06 13:54:00,
2013-04-06 10:05:00,60.0,-99.9,30.11,North,-999,-999.0,-999.0,-999,-99.99,,,-99.99,,2013-04-06 14:05:00,
2013-04-06 10:13:00,-999.0,-99.9,30.11,NNE,20,8.0,12.0,-999,-99.99,,,-99.99,,2013-04-06 14:13:00,
2013-04-06 10:23:00,60.0,-99.9,30.12,North,-999,-999.0,-999.0,-999,-99.99,,,-99.99,,2013-04-06 14:23:00,
2013-04-06 10:43:00,-999.0,-99.9,30.11,NNE,28,7.0,11.0,-999,-99.99,,,-99.99,,2013-04-06 14:43:00,
2013-04-06 10:53:00,-999.0,-99.9,30.11,NNE,20,9.0,12.0,-999,-99.99,,,-99.99,,2013-04-06 14:53:00,
2013-04-06 11:02:00,-999.0,-99.9,30.11,NNE,22,9.0,12.0,-999,-99.99,,,-99.99,,2013-04-06 15:02:00,
2013-04-06 11:34:00,63.0,-99.9,30.13,North,-999,-999.0,-999.0,-999,-99.99,,,-99.99,,2013-04-06 15:34:00,
2013-04-06 11:43:00,63.0,-99.9,30.13,North,-999,-999.0,-999.0,-999,-99.99,,,-99.99,,2013-04-06 15:43:00,
2013-04-06 11:54:00,-999.0,-99.9,30.13,NE,45,5.0,9.0,-999,-99.99,,,-99.99,,2013-04-06 15:54:00,
2013-04-06 12:23:00,-999.0,-99.9,30.13,NE,50,3.0,7.0,-999,-99.99,,,-99.99,,2013-04-06 16:23:00,
2013-04-06 12:33:00,-999.0,-99.9,30.12,East,84,4.0,7.0,-999,-99.99,,,-99.99,,2013-04-06 16:33:00,
2013-04-06 12:43:00,-999.0,-99.9,30.12,ENE,74,4.0,7.0,-999,-99.99,,,-99.99,,2013-04-06 16:43:00,
2013-04-06 12:53:00,65.0,-99.9,30.12,North,-999,-999.0,-999.0,-999,-99.99,,,-99.99,,2013-04-06 16:53:00,
2013-04-06 13:03:00,-999.0,-99.9,30.12,East,85,5.0,7.0,-999,-99.99,,,-99.99,,2013-04-06 17:03:00,
2013-04-06 13:23:00,-999.0,-99.9,30.11,East,87,3.0,6.0,-999,-99.99,,,-99.99,,2013-04-06 17:23:00,
2013-04-06 13:33:00,-999.0,-99.9,30.11,SE,126,3.0,4.0,-999,-99.99,,,-99.99,,2013-04-06 17:33:00,
2013-04-06 13:43:00,66.0,-99.9,30.11,North,-999,-999.0,-999.0,-999,-99.99,,,-99.99,,2013-04-06 17:43:00,
2013-04-06 13:53:00,-999.0,-99.9,30.11,North,6,4.0,6.0,-999,-99.99,,,-99.99,,2013-04-06 17:53:00,
2013-04-06 14:03:00,68.0,-99.9,30.11,North,-999,-999.0,-999.0,-999,-99.99,,,-99.99,,2013-04-06 18:03:00,
2013-04-06 14:24:00,-999.0,-99.9,30.11,NNE,25,5.0,9.0,-999,-99.99,,,-99.99,,2013-04-06 18:24:00,
2013-04-06 14:43:00,-999.0,-99.9,30.10,NE,37,4.0,7.0,-999,-99.99,,,-99.99,,2013-04-06 18:43:00,
2013-04-06 14:52:00,-999.0,-99.9,30.10,NE,48,3.0,5.0,-999,-99.99,,,-99.99,,2013-04-06 18:52:00,
2013-04-06 15:03:00,-999.0,-99.9,30.09,NNW,345,2.0,7.0,-999,-99.99,,,-99.99,,2013-04-06 19:03:00,
2013-04-06 15:23:00,-999.0,-99.9,30.09,East,79,4.0,6.0,-999,-99.99,,,-99.99,,2013-04-06 19:23:00,
2013-04-06 15:33:00,-999.0,-99.9,30.09,NNE,27,4.0,5.0,-999,-99.99,,,-99.99,,2013-04-06 19:33:00,
2013-04-06 15:42:00,-999.0,-99.9,30.09,North,355,5.0,7.0,-999,-99.99,,,-99.99,,2013-04-06 19:42:00,
2013-04-06 15:54:00,-999.0,-99.9,30.08,NE,34,4.0,6.0,-999,-99.99,,,-99.99,,2013-04-06 19:54:00,
2013-04-06 16:03:00,-999.0,-99.9,30.07,NE,41,3.0,7.0,-999,-99.99,,,-99.99,,2013-04-06 20:03:00,
2013-04-06 16:23:00,-999.0,-99.9,30.07,NE,36,5.0,8.0,-999,-99.99,,,-99.99,,2013-04-06 20:23:00,
2013-04-06 16:32:00,-999.0,-99.9,30.07,NE,36,5.0,8.0,-999,-99.99,,,-99.99,,2013-04-06 20:32:00,
2013-04-06 16:42:00,-999.0,-99.9,30.07,NE,40,4.0,7.0,-999,-99.99,,,-99.99,,2013-04-06 20:42:00,
2013-04-06 16:53:00,-999.0,-99.9,30.07,NNE,29,4.0,6.0,-999,-99.99,,,-99.99,,2013-04-06 20:53:00,
2013-04-06 17:14:00,-999.0,-99.9,30.06,NE,35,3.0,5.0,-999,-99.99,,,-99.99,,2013-04-06 21:14:00,
2013-04-06 17:22:00,75.0,-99.9,30.06,North,-999,-999.0,-999.0,-999,-99.99,,,-99.99,,2013-04-06 21:22:00,
2013-04-06 17:33:00,-999.0,-99.9,30.06,NW,319,5.0,8.0,-999,-99.99,,,-99.99,,2013-04-06 21:33:00,
2013-04-06 17:43:00,73.0,-99.9,30.06,North,-999,-999.0,-999.0,-999,-99.99,,,-99.99,,2013-04-06 21:43:00,
2013-04-06 17:53:00,72.0,-99.9,30.06,North,-999,-999.0,-999.0,-999,-99.99,,,-99.99,,2013-04-06 21:53:00,
2013-04-06 18:03:00,-999.0,-99.9,30.06,NW,306,11.0,14.0,-999,-99.99,,,-99.99,,2013-04-06 22:03:00,
2013-04-06 18:23:00,-999.0,-99.9,30.07,NW,306,12.0,14.0,-999,-99.99,,,-99.99,,2013-04-06 22:23:00,
2013-04-06 18:35:00,73.0,-99.9,30.07,North,-999,-999.0,-999.0,-999,-99.99,,,-99.99,,2013-04-06 22:35:00,
2013-04-06 18:44:00,-999.0,-99.9,30.07,NW,311,10.0,15.0,-999,-99.99,,,-99.99,,2013-04-06 22:44:00,
2013-04-06 18:55:00,72.0,-99.9,30.08,North,-999,-999.0,-999.0,-999,-99.99,,,-99.99,,2013-04-06 22:55:00,
2013-04-06 19:03:00,-999.0,-99.9,30.08,NW,309,9.0,15.0,-999,-99.99,,,-99.99,,2013-04-06 23:03:00,
2013-04-06 19:14:00,-999.0,-99.9,30.08,NW,318,9.0,15.0,-999,-99.99,,,-99.99,,2013-04-06 23:14:00,
2013-04-06 19:24:00,-999.0,-99.9,30.08,NNW,330,7.0,14.0,-999,-99.99,,,-99.99,,2013-04-06 23:24:00,
2013-04-06 19:34:00,-999.0,-99.9,30.08,NNW,345,7.0,15.0,-999,-99.99,,,-99.99,,2013-04-06 23:34:00,
2013-04-06 19:43:00,-999.0,-99.9,30.08,NW,318,9.0,12.0,-999,-99.99,,,-99.99,,2013-04-06 23:43:00,
2013-04-06 19:54:00,70.0,-99.9,30.08,North,-999,-999.0,-999.0,-999,-99.99,,,-99.99,,2013-04-06 23:54:00,
2013-04-06 20:03:00,-999.0,-99.9,30.09,North,351,9.0,13.0,-999,-99.99,,,-99.99,,2013-04-07 00:03:00,
2013-04-06 20:13:00,-999.0,-99.9,30.09,NNW,343,8.0,14.0,-999,-99.99,,,-99.99,,2013-04-07 00:13:00,
2013-04-06 20:23:00,68.0,-99.9,30.09,North,-999,-999.0,-999.0,-999,-99.99,,,-99.99,,2013-04-07 00:23:00,
2013-04-06 20:33:00,-999.0,-99.9,30.10,NNW,333,8.0,13.0,-999,-99.99,,,-99.99,,2013-04-07 00:33:00,
2013-04-06 20:44:00,68.0,-99.9,30.10,North,-999,-999.0,-999.0,-999,-99.99,,,-99.99,,2013-04-07 00:44:00,
2013-04-06 20:53:00,67.0,-99.9,30.10,North,-999,-999.0,-999.0,-999,-99.99,,,-99.99,,2013-04-07 00:53:00,
2013-04-06 21:03:00,-999.0,-99.9,30.11,NNW,343,8.0,14.0,-999,-99.99,,,-99.99,,2013-04-07 01:03:00,
2013-04-06 21:12:00,-999.0,-99.9,30.11,NNW,347,7.0,12.0,-999,-99.99,,,-99.99,,2013-04-07 01:12:00,
2013-04-06 21:24:00,-999.0,-99.9,30.11,North,350,6.0,12.0,-999,-99.99,,,-99.99,,2013-04-07 01:24:00,
2013-04-06 21:33:00,66.0,-99.9,30.12,North,-999,-999.0,-999.0,-999,-99.99,,,-99.99,,2013-04-07 01:33:00,
2013-04-06 21:43:00,-999.0,-99.9,30.12,North,352,7.0,11.0,-999,-99.99,,,-99.99,,2013-04-07 01:43:00,
2013-04-06 21:53:00,-999.0,-99.9,30.12,North,359,6.0,10.0,-999,-99.99,,,-99.99,,2013-04-07 01:53:00,
2013-04-06 22:24:00,66.0,-99.9,30.14,North,-999,-999.0,-999.0,-999,-99.99,,,-99.99,,2013-04-07 02:24:00,
2013-04-06 22:33:00,-999.0,-99.9,30.13,North,3,6.0,12.0,-999,-99.99,,,-99.99,,2013-04-07 02:33:00,
2013-04-06 22:43:00,66.0,-99.9,30.13,North,-999,-999.0,-999.0,-999,-99.99,,,-99.99,,2013-04-07 02:43:00,
2013-04-06 22:53:00,-999.0,-99.9,30.13,North,4,7.0,11.0,-999,-99.99,,,-99.99,,2013-04-07 02:53:00,
2013-04-06 23:03:00,-999.0,-99.9,30.13,NNE,12,6.0,10.0,-999,-99.99,,,-99.99,,2013-04-07 03:03:00,
2013-04-06 23:23:00,66.0,-99.9,30.14,North,-999,-999.0,-999.0,-999,-99.99,,,-99.99,,2013-04-07 03:23:00,
2013-04-06 23:35:00,67.0,-99.9,30.14,North,-999,-999.0,-999.0,-999,-99.99,,,-99.99,,2013-04-07 03:35:00,
2013-04-06 23:44:00,69.0,-99.9,30.13,North,-999,-999.0,-999.0,-999,-99.99,,,-99.99,,2013-04-07 03:44:00,
2013-04-06 23:55:00,69.0,-99.9,30.14,North,-999,-999.0,-999.0,-999,-99.99,,,-99.99,,2013-04-07 03:55:00,